Weather reports worldwide

Advertisment
Aboyne, United Kingdom (3080): temperature & dewpoint: 19.09.2020 01:00:00 - 25.09.2020 01:00:00 (BST)Aboyne, United Kingdom (3080): temperature -20cm & temperature -100cm: 19.09.2020 01:00:00 - 25.09.2020 01:00:00 (BST)Aboyne, United Kingdom (3080): wind speed & gusts: 19.09.2020 01:00:00 - 25.09.2020 01:00:00 (BST)Aboyne, United Kingdom (3080): wind direction: 19.09.2020 01:00:00 - 25.09.2020 01:00:00 (BST)Aboyne, United Kingdom (3080): reduced air pressure: 19.09.2020 01:00:00 - 25.09.2020 01:00:00 (BST)Aboyne, United Kingdom (3080): visibility: 19.09.2020 01:00:00 - 25.09.2020 01:00:00 (BST)Aboyne, United Kingdom (3080): precipitation: 19.09.2020 01:00:00 - 25.09.2020 01:00:00 (BST)
Date & Time tt [°C] td [°C] tt -20cm [°C] tt -100cm [°C] ff [km/h] ff [kn] fx [km/h] fx [kn] dd ppp [hPa] vv [km] rr [mm]
25.09.2020 01:00:00 2,4 1,8 - - 5 3 - - W 1003,9 40 0,0
25.09.2020 00:00:00 4,1 3,5 - - 8 4 - - W 1003,2 50 0,0
24.09.2020 23:00:00 4,2 3,8 - - 5 3 - - WNW 1002,8 45 0,2
24.09.2020 22:00:00 3,7 2,7 - - 4 2 - - W 1002,0 50 0,0
24.09.2020 21:00:00 3,8 3,0 - - 5 3 - - W 1001,3 50 0,0
24.09.2020 20:00:00 4,4 2,6 - - 5 3 - - WNW 1000,3 50 0,0
24.09.2020 19:00:00 6,3 2,7 - - 2 1 - - NNW 999,4 45 0,0
24.09.2020 18:00:00 8,9 2,7 - - 5 3 - - N 998,6 30 0,0
24.09.2020 17:00:00 9,7 2,3 - - 13 7 - - N 997,6 45 0,0
24.09.2020 16:00:00 10,3 1,5 - - 13 7 - - N 996,9 40 0,0
24.09.2020 15:00:00 10,6 3,7 - - 8 4 - - NNE 996,3 40 0,0
24.09.2020 14:00:00 10,2 4,8 - - 8 4 - - N 995,9 40 0,0
24.09.2020 13:00:00 9,5 4,7 - - 5 3 - - NW 995,5 30 0,0
24.09.2020 12:00:00 8,5 5,5 - - 8 4 - - W 995,1 45 0,0
24.09.2020 11:00:00 6,8 4,9 - - 5 3 - - W 994,8 45 0,0
24.09.2020 10:00:00 5,6 4,3 12,0 13,0 5 3 - - WNW 994,7 45 0,0
24.09.2020 09:00:00 3,8 3,2 - - 5 3 - - WNW 994,5 4,1 0,0
24.09.2020 08:00:00 2,5 2,1 - - 5 3 - - WNW 994,3 30 0,0
24.09.2020 07:00:00 1,9 1,6 - - 8 4 - - NW 994,0 50 0,0
24.09.2020 06:00:00 2,3 1,9 - - 8 4 - - NW 994,3 50 0,0
24.09.2020 05:00:00 1,9 1,5 - - 5 3 - - NW 994,6 40 0,0
24.09.2020 04:00:00 2,2 1,8 - - 8 4 - - NW 995,1 45 0,0
24.09.2020 03:00:00 2,0 1,8 - - 8 4 - - NW 995,5 40 0,0
24.09.2020 02:00:00 1,8 1,6 - - 8 4 - - W 996,0 35 0,0
24.09.2020 01:00:00 2,1 1,8 - - 8 4 - - W 996,5 35 0,0
24.09.2020 00:00:00 2,0 1,5 - - 8 4 - - W 997,4 35 0,0
23.09.2020 23:00:00 3,7 3,1 - - 5 3 - - W 997,9 40 0,0
23.09.2020 22:00:00 4,6 3,8 - - 5 3 - - W 998,6 45 0,0
23.09.2020 21:00:00 4,0 2,8 - - 8 4 - - W 999,1 40 0,0
23.09.2020 20:00:00 4,5 2,0 - - 2 1 - - W 999,1 40 0,0
23.09.2020 19:00:00 7,8 3,3 - - 8 4 - - NE 999,0 40 0,0
23.09.2020 18:00:00 9,7 3,7 - - 5 3 - - NE 999,3 50 0,0
23.09.2020 17:00:00 11,3 3,3 - - 8 4 - - E 999,6 40 0,0
23.09.2020 16:00:00 11,2 2,9 - - 9 5 - - ENE 1000,3 50 0,0
23.09.2020 15:00:00 11,8 2,6 - - 4 2 - - NE 1000,7 35 0,0
23.09.2020 14:00:00 11,2 3,3 - - 4 2 - - NE 1001,2 45 0,0
23.09.2020 13:00:00 10,7 2,6 - - 5 3 - - NNE 1001,5 50 0,0
23.09.2020 12:00:00 10,5 3,9 - - 4 2 - - NNE 1001,6 50 0,0
23.09.2020 11:00:00 10,9 4,3 - - 9 5 - - N 1001,7 40 0,0
23.09.2020 10:00:00 9,1 5,2 12,7 13,2 8 4 - - WSW 1001,9 45 0,0
23.09.2020 09:00:00 6,0 4,6 - - 9 5 - - WNW 1002,0 50 0,0
23.09.2020 08:00:00 2,3 2,1 - - 11 6 - - WNW 1002,3 50 0,0
23.09.2020 07:00:00 0,1 -0,6 - - 2 1 - - NE 1001,7 50 0,0
23.09.2020 06:00:00 1,6 0,9 - - 2 1 - - N 1001,1 35 0,0
23.09.2020 05:00:00 1,8 0,5 - - 2 1 - - N 1000,5 40 0,0
23.09.2020 04:00:00 5,4 3,8 - - 11 6 - - W 999,8 50 0,0
23.09.2020 03:00:00 6,5 4,5 - - 11 6 - - W 999,8 40 0,0
23.09.2020 02:00:00 7,6 5,6 - - 9 5 - - W 999,0 50 0,0
23.09.2020 01:00:00 8,2 6,2 - - 11 6 - - W 998,0 50 0,4
23.09.2020 00:00:00 12,2 8,1 - - 22 12 - - W 996,2 35 0,0
22.09.2020 23:00:00 13,1 8,4 - - 11 6 - - WSW 994,7 50 0,0
22.09.2020 22:00:00 13,2 10,0 - - 5 3 - - WSW 994,6 17 0,0
22.09.2020 21:00:00 13,9 10,1 - - 16 9 - - SSW 994,4 50 0,0
22.09.2020 20:00:00 13,8 9,9 - - 11 6 - - WSW 994,4 45 0,0
22.09.2020 19:00:00 13,8 9,5 - - 5 3 - - SSE 994,8 50 0,0
22.09.2020 18:00:00 14,1 9,4 - - 13 7 - - SE 994,9 50 0,0
22.09.2020 17:00:00 14,7 9,2 - - 13 7 - - SSW 995,5 50 0,0
22.09.2020 16:00:00 14,5 9,0 - - 18 10 - - S 996,2 50 0,0
22.09.2020 15:00:00 14,8 8,7 - - 29 16 48 26 SW 996,7 50 0,0
22.09.2020 14:00:00 15,2 8,5 - - 26 14 - - SW 996,7 50 0,0
22.09.2020 13:00:00 15,3 8,6 - - 21 11 - - SSW 997,6 45 0,0
22.09.2020 12:00:00 14,6 7,9 - - 28 15 50 27 SW 998,4 45 0,0
22.09.2020 11:00:00 13,5 7,4 - - 29 16 52 28 WSW 998,9 45 0,0
22.09.2020 10:00:00 13,5 7,7 12,7 13,2 24 13 - - SW 999,4 45 0,0
22.09.2020 09:00:00 12,8 7,7 - - 18 10 - - W 1000,4 45 0,0
22.09.2020 08:00:00 12,2 7,4 - - 18 10 - - WSW 1001,7 45 0,0
22.09.2020 07:00:00 11,9 8,1 - - 15 8 - - SW 1002,6 45 0,0
22.09.2020 06:00:00 11,7 8,0 - - 13 7 - - SW 1003,8 50 0,0
22.09.2020 05:00:00 6,5 6,2 - - 4 2 - - ENE 1005,2 35 0,0
22.09.2020 04:00:00 7,1 6,7 - - 9 5 - - E 1006,1 40 0,0
22.09.2020 03:00:00 5,7 5,4 - - 5 3 - - ENE 1007,5 45 0,0
22.09.2020 02:00:00 6,4 6,0 - - 8 4 - - E 1008,4 40 0,0
22.09.2020 01:00:00 6,2 5,3 - - 2 1 - - WNW 1009,4 40 0,0
22.09.2020 00:00:00 6,7 5,9 - - 2 1 - - W 1010,0 40 0,0
21.09.2020 23:00:00 7,0 4,8 - - 4 2 - - NNW 1010,7 45 0,0
21.09.2020 22:00:00 9,2 6,1 - - 4 2 - - W 1010,9 40 0,0
21.09.2020 21:00:00 11,5 7,3 - - 9 5 - - W 1010,7 35 0,0
21.09.2020 20:00:00 13,0 7,3 - - 13 7 - - W 1010,6 50 0,0
21.09.2020 19:00:00 14,6 7,5 - - 18 10 - - W 1009,9 50 0,0
21.09.2020 18:00:00 16,3 7,7 - - 18 10 - - WNW 1010,0 50 0,0
21.09.2020 17:00:00 18,2 7,1 - - 16 9 - - W 1010,1 45 0,0
21.09.2020 16:00:00 20,1 7,8 - - 9 5 - - WSW 1009,9 40 0,0
21.09.2020 15:00:00 20,7 7,5 - - 16 9 - - W 1010,1 30 0,0
21.09.2020 14:00:00 20,7 7,5 - - 11 6 - - W 1010,7 50 0,0
21.09.2020 13:00:00 19,3 7,7 - - 16 9 - - W 1011,3 50 0,0
21.09.2020 12:00:00 18,3 6,9 - - 21 11 - - W 1011,7 50 0,0
21.09.2020 11:00:00 17,3 7,5 - - 16 9 - - W 1012,3 45 0,0
21.09.2020 10:00:00 15,7 6,5 - - 16 9 - - W 1012,5 50 0,0
21.09.2020 09:00:00 7,8 5,7 - - 5 3 - - E 1013,4 45 0,0
21.09.2020 08:00:00 3,2 2,1 - - 4 2 - - W 1013,8 50 0,0
21.09.2020 07:00:00 3,8 2,3 - - 4 2 - - WSW 1013,9 50 0,0
21.09.2020 06:00:00 3,8 1,6 - - 5 3 - - SE 1014,0 50 0,0
21.09.2020 05:00:00 3,0 2,4 - - 4 2 - - W 1014,4 45 0,0
21.09.2020 04:00:00 2,8 2,4 - - 9 5 - - E 1014,8 45 0,0
21.09.2020 03:00:00 2,8 1,8 - - 4 2 - - SE 1016,1 50 0,0
21.09.2020 02:00:00 3,5 3,2 - - 4 2 - - SSW 1017,0 30 0,0
21.09.2020 01:00:00 4,9 4,7 - - 5 3 - - ENE 1017,2 0,8 0,0
21.09.2020 00:00:00 5,1 4,5 - - 2 1 - - ESE 1018,1 28 0,0
20.09.2020 23:00:00 6,9 5,1 - - 5 3 - - NNW 1018,7 50 0,0
20.09.2020 22:00:00 8,4 7,4 - - 4 2 - - W 1019,5 45 0,0
20.09.2020 21:00:00 9,9 8,3 - - 4 2 - - SE 1019,6 35 0,0
20.09.2020 20:00:00 11,7 9,5 - - 9 5 - - E 1019,9 45 0,0
20.09.2020 19:00:00 14,6 10,0 - - 5 3 - - SSE 1019,9 45 0,0
20.09.2020 18:00:00 17,7 10,3 - - 4 2 - - SW 1019,9 35 0,0
20.09.2020 17:00:00 19,5 11,1 - - 15 8 - - S 1019,7 50 0,0
20.09.2020 16:00:00 20,6 11,5 - - 13 7 - - S 1020,2 45 0,0
20.09.2020 15:00:00 21,5 9,9 - - 13 7 - - S 1020,8 35 0,0
20.09.2020 14:00:00 22,0 11,2 - - 11 6 - - S 1021,5 35 0,0
20.09.2020 13:00:00 20,7 10,9 - - 5 3 - - E 1021,9 50 0,0
20.09.2020 12:00:00 19,2 11,8 - - 4 2 - - SSW 1022,6 23 0,0
20.09.2020 11:00:00 16,3 10,4 - - 11 6 - - W 1023,4 40 0,0
20.09.2020 10:00:00 13,2 9,9 - - 8 4 - - W 1024,3 45 0,0
20.09.2020 09:00:00 9,9 8,7 - - 11 6 - - WNW 1024,8 50 0,0
20.09.2020 08:00:00 7,2 6,9 - - 11 6 - - WNW 1024,9 35 0,0
20.09.2020 07:00:00 5,2 5,1 - - 9 5 - - NW 1024,9 50 0,0
20.09.2020 06:00:00 4,6 4,1 - - 8 4 - - W 1025,2 28 0,0
20.09.2020 05:00:00 5,1 4,9 - - 8 4 - - WNW 1025,0 45 0,0
20.09.2020 04:00:00 5,9 5,8 - - 9 5 - - NW 1025,4 50 0,0
20.09.2020 03:00:00 5,4 5,4 - - 5 3 - - W 1025,7 40 0,0
20.09.2020 02:00:00 5,3 5,2 - - 5 3 - - WNW 1026,0 35 0,0
20.09.2020 01:00:00 5,5 5,4 - - 5 3 - - WSW 1026,1 15 0,0
20.09.2020 00:00:00 5,4 5,2 - - 5 3 - - W 1026,1 19 0,0
19.09.2020 23:00:00 4,9 4,3 - - 2 1 - - WNW 1026,1 30 0,0
19.09.2020 22:00:00 6,1 5,3 - - 0 0 - - N 1026,0 45 0,0
19.09.2020 21:00:00 7,8 6,7 - - 2 1 - - SW 1026,0 50 0,0
19.09.2020 20:00:00 10,4 7,8 - - 4 2 - - ESE 1025,5 50 0,0
19.09.2020 19:00:00 14,7 10,2 - - 4 2 - - E 1024,8 40 0,0
19.09.2020 18:00:00 18,1 10,5 - - 8 4 - - SE 1024,5 40 0,0
19.09.2020 17:00:00 19,6 10,2 - - 8 4 - - SE 1024,8 40 0,0
19.09.2020 16:00:00 20,0 9,9 - - 11 6 - - ESE 1024,9 30 0,0
19.09.2020 15:00:00 20,3 9,5 - - 9 5 - - SE 1025,4 45 0,0
19.09.2020 14:00:00 19,8 10,3 - - 5 3 - - E 1025,7 30 0,0
19.09.2020 13:00:00 18,9 11,9 - - 5 3 - - ESE 1026,5 50 0,0
19.09.2020 12:00:00 17,0 11,0 - - 4 2 - - ESE 1026,9 50 0,0
19.09.2020 11:00:00 14,9 11,8 - - 4 2 - - WNW 1027,5 45 0,0
19.09.2020 10:00:00 12,3 12,2 13,2 13,2 5 3 - - WNW 1027,7 40 0,0
19.09.2020 09:00:00 10,1 10,1 - - 2 1 - - NE 1027,8 17 0,0
19.09.2020 08:00:00 8,4 8,4 - - 2 1 - - NE 1028,0 0,7 0,0
19.09.2020 07:00:00 7,1 7,0 - - 4 2 - - E 1027,9 0,5 0,0
19.09.2020 06:00:00 8,6 8,6 - - 2 1 - - W 1027,7 5 0,0
19.09.2020 05:00:00 7,9 7,8 - - 5 3 - - WSW 1028,1 0,3 0,0
19.09.2020 04:00:00 6,6 6,5 - - 4 2 - - WNW 1028,3 2,1 0,0
19.09.2020 03:00:00 6,5 6,4 - - 2 1 - - WNW 1028,5 0,1 0,0
19.09.2020 02:00:00 5,7 5,4 - - 0 0 - - N 1028,9 0,1 0,0
19.09.2020 01:00:00 6,7 6,1 - - 0 0 - - N 1028,9 0,3 0,0

tt = temperature
td = dewpoint
tt -20cm = temperature -20cm
tt -100cm = temperature -100cm
ff = wind speed
fx = gusts
dd = wind direction
ppp = reduced air pressure
vv = visibility
rr = precipitation

Next stations